TimeCDT,TemperatureF,Dew PointF,Humidity,Sea Level PressureIn,VisibilityMPH,Wind Direction,Wind SpeedMPH,Gust SpeedMPH,PrecipitationIn,Events,Conditions,WindDirDegrees,DateUTC
12:15 AM,41.0,-9999,N/A,30.12,10.0,Calm,Calm,-,N/A,,Partly Cloudy,0,2013-10-24 05:15:00
12:35 AM,41.0,-9999,N/A,30.11,10.0,Calm,Calm,-,N/A,,Partly Cloudy,0,2013-10-24 05:35:00
12:55 AM,39.2,-9999,N/A,30.11,10.0,Calm,Calm,-,N/A,,Partly Cloudy,0,2013-10-24 05:55:00
1:15 AM,41.0,-9999,N/A,30.11,10.0,Calm,Calm,-,N/A,,Partly Cloudy,0,2013-10-24 06:15:00
1:35 AM,41.0,-9999,N/A,30.12,10.0,Calm,Calm,-,N/A,,Partly Cloudy,0,2013-10-24 06:35:00
1:55 AM,39.2,-9999,N/A,30.12,10.0,Calm,Calm,-,N/A,,Scattered Clouds,0,2013-10-24 06:55:00
2:15 AM,39.2,-9999,N/A,30.11,10.0,Calm,Calm,-,N/A,,Scattered Clouds,0,2013-10-24 07:15:00
2:35 AM,39.2,-9999,N/A,30.11,10.0,Calm,Calm,-,N/A,,Scattered Clouds,0,2013-10-24 07:35:00
2:55 AM,39.2,-9999,N/A,30.12,10.0,Calm,Calm,-,N/A,,Scattered Clouds,0,2013-10-24 07:55:00
3:15 AM,39.2,-9999,N/A,30.12,10.0,Calm,Calm,-,N/A,,Scattered Clouds,0,2013-10-24 08:15:00
3:35 AM,39.2,-9999,N/A,30.12,10.0,Calm,Calm,-,N/A,,Scattered Clouds,0,2013-10-24 08:35:00
3:55 AM,39.2,-9999,N/A,30.12,10.0,Calm,Calm,-,N/A,,Mostly Cloudy,0,2013-10-24 08:55:00
4:15 AM,39.2,-9999,N/A,30.13,10.0,Calm,Calm,-,N/A,,Mostly Cloudy,0,2013-10-24 09:15:00
4:35 AM,39.2,-9999,N/A,30.13,10.0,Calm,Calm,-,N/A,,Mostly Cloudy,0,2013-10-24 09:35:00
4:55 AM,39.2,-9999,N/A,30.14,10.0,Calm,Calm,-,N/A,,Scattered Clouds,0,2013-10-24 09:55:00
5:15 AM,39.2,-9999,N/A,30.16,10.0,Calm,Calm,-,N/A,,Scattered Clouds,0,2013-10-24 10:15:00
5:35 AM,37.4,-9999,N/A,30.16,10.0,Calm,Calm,-,N/A,,Scattered Clouds,0,2013-10-24 10:35:00
5:55 AM,37.4,-9999,N/A,30.17,10.0,NNW,5.8,-,N/A,,Scattered Clouds,330,2013-10-24 10:55:00
6:15 AM,39.2,-9999,N/A,30.19,10.0,North,5.8,-,N/A,,Partly Cloudy,360,2013-10-24 11:15:00
6:35 AM,37.4,-9999,N/A,30.20,10.0,Calm,Calm,-,N/A,,Partly Cloudy,0,2013-10-24 11:35:00
6:50 AM,39.2,37.4,93,30.21,10.0,Calm,Calm,-,N/A,,Partly Cloudy,0,2013-10-24 11:50:00
7:51 AM,39.2,35.6,87,30.24,10.0,NNW,11.5,-,N/A,,Clear,340,2013-10-24 12:51:00
8:50 AM,41.0,37.4,87,30.28,10.0,North,11.5,-,N/A,,Partly Cloudy,360,2013-10-24 13:50:00
9:48 AM,42.8,39.2,87,30.31,10.0,North,9.2,16.1,N/A,,Partly Cloudy,350,2013-10-24 14:48:00
10:47 AM,46.4,33.8,62,30.31,10.0,NNW,10.4,17.3,N/A,,Scattered Clouds,340,2013-10-24 15:47:00
11:51 AM,48.2,33.8,58,30.32,10.0,NNW,9.2,18.4,N/A,,Scattered Clouds,330,2013-10-24 16:51:00
12:45 PM,50.0,32.0,50,30.32,10.0,North,13.8,18.4,N/A,,Partly Cloudy,10,2013-10-24 17:45:00
1:45 PM,50.0,28.4,43,30.32,10.0,North,15.0,21.9,N/A,,Partly Cloudy,360,2013-10-24 18:45:00
2:50 PM,51.8,26.6,38,30.31,10.0,North,12.7,-,N/A,,Clear,350,2013-10-24 19:50:00
3:45 PM,51.8,26.6,38,30.31,10.0,NNW,9.2,16.1,N/A,,Clear,330,2013-10-24 20:45:00
4:50 PM,51.8,24.8,35,30.31,10.0,NNW,12.7,-,N/A,,Partly Cloudy,340,2013-10-24 21:50:00
5:45 PM,48.2,24.8,40,30.32,10.0,North,6.9,-,N/A,,Clear,360,2013-10-24 22:45:00
7:45 PM,39.2,26.6,61,30.35,10.0,Calm,Calm,-,N/A,,Clear,0,2013-10-25 00:45:00
8:45 PM,39.2,30.2,70,30.38,10.0,Calm,Calm,-,N/A,,Clear,0,2013-10-25 01:45:00
9:15 PM,37.4,-9999,N/A,30.39,10.0,Calm,Calm,-,N/A,,Clear,0,2013-10-25 02:15:00
9:35 PM,37.4,-9999,N/A,30.39,10.0,Calm,Calm,-,N/A,,Clear,0,2013-10-25 02:35:00
9:55 PM,37.4,-9999,N/A,30.40,10.0,Calm,Calm,-,N/A,,Clear,0,2013-10-25 02:55:00
10:15 PM,37.4,-9999,N/A,30.40,10.0,Calm,Calm,-,N/A,,Clear,0,2013-10-25 03:15:00
10:35 PM,37.4,-9999,N/A,30.41,10.0,Calm,Calm,-,N/A,,Clear,0,2013-10-25 03:35:00
10:55 PM,37.4,-9999,N/A,30.41,10.0,Calm,Calm,-,N/A,,Clear,0,2013-10-25 03:55:00
11:15 PM,37.4,-9999,N/A,30.42,10.0,Calm,Calm,-,N/A,,Clear,0,2013-10-25 04:15:00
11:35 PM,37.4,-9999,N/A,30.42,10.0,Calm,Calm,-,N/A,,Clear,0,2013-10-25 04:35:00
11:55 PM,37.4,-9999,N/A,30.43,10.0,Calm,Calm,-,N/A,,Clear,0,2013-10-25 04:55:00